Weather Roundup
Issued by NWS Chicago, IL

Home | Current Version | Previous Version | Text Only | Print | Product List | Glossary On
Versions: 1 2 3 4 5 6 7 8 9 10 11 12 13 14 15 16 17 18 19 20 21 22 23 24 25 26 27 28 29 30 31 32 33 34 35 36 37 38 39 40 41 42 43 44 45 46 47 48 49 50
000
NZUS59 KLOT 280621
HRRLOT

CHICAGO AREA WEATHER ROUNDUP
NATIONAL WEATHER SERVICE CHICAGO/ROMEOVILLE IL
100 AM CDT FRI AUG 28 2015

NOTE: "FAIR" INDICATES FEW OR NO CLOUDS BELOW 12,000 FEET WITH NO
SIGNIFICANT WEATHER AND/OR OBSTRUCTIONS TO VISIBILITY.

* THESE STATIONS ARE NOT UNDER NWS QUALITY CONTROL. THEY ALSO MAY NOT
  REPORT WEATHER SUCH AS PRECIPITATION OR FOG.

ILZ005-006-012>014-019>023-280700-
NORTHEAST ILLINOIS

CITY           SKY/WX    TMP DP  RH WIND       PRES   REMARKS
OHARE            N/A     59  55  87 SE3       30.13S
6HR MIN TEMP:  59; 6HR MAX TEMP:  69;

MIDWAY           N/A     65  55  70 S3        30.14R
6HR MIN TEMP:  65; 6HR MAX TEMP:  70;

AURORA           N/A     54  52  93 CALM      30.15R FOG
6HR MIN TEMP:  54; 6HR MAX TEMP:  68;

LANSING*         N/A     57  55  92 E3        30.14F
JOLIET*          N/A     62  57  85 E5        30.14S
WAUKEGAN         N/A     55  54  96 CALM      30.13S FOG
6HR MIN TEMP:  54; 6HR MAX TEMP:  64;

DUPAGE AIRPORT   N/A     56  53  90 CALM      30.13F
6HR MIN TEMP:  56; 6HR MAX TEMP:  69;

WHEELING         N/A     58  53  84 CALM      30.15S
6HR MIN TEMP:  57; 6HR MAX TEMP:  67;

KANKAKEE*        N/A     57  56  94 CALM      30.14S
MORRIS*          N/A     57  55  92 E3        30.13S
LEWIS AIRPORT*   N/A     59  55  85 SE6       30.14S
NORTHERLY IS     N/A     63  59  87 S5          N/A
$$

WIZ051-052-058>065-066-070>072-280700-
SOUTHEAST WISCONSIN

CITY           SKY/WX    TMP DP  RH WIND       PRES   REMARKS
MILWAUKEE        N/A     58  52  80 SW3       30.12F
6HR MIN TEMP:  57; 6HR MAX TEMP:  66;

KENOSHA*         N/A     54  51  90 S3        30.13F
RACINE*          N/A     58  54  86 S3        30.14F
BURLINGTON       N/A     49  49  98 CALM      30.14S FOG
WAUKESHA         N/A     55  52  88 S5        30.15R
WEST BEND        N/A     55  50  82 CALM      30.13R
$$

INZ001>003-010>013-019-020-280700-
NORTHWEST INDIANA

CITY           SKY/WX    TMP DP  RH WIND       PRES   REMARKS
GARY*            N/A     57  54  89 CALM      30.15S
6HR MIN TEMP:  57; 6HR MAX TEMP:  67;

MICHIGAN CITY* NOT AVBL
RENSSELAER*    NOT AVBL
VALPARAISO       N/A     56  54  93 E3        30.16S
$$

LMZ740>746-280700-
SOUTHERN LAKE MICHIGAN

STATION/POSITION TIME  SKY/WX   TEMP WIND        PRES    VSBY
                                AIR  DIR/SP/G
                 (UTC)          (F)  (DEG/KT/KT) (MB)    (MI)
HARRISON CRIB    0600            66  150/ 11/ 14   N/A
BURNHAM HARBOR   0600            63  160/  4/  7   N/A
CALUMET HARBOR   0600            65  120/  5/  7   N/A
BURNS HARBOR     0500            62   80/  7/  8 1021.0
MICHIGAN CITY    0600            62  100/  6/  7   N/A
$$

ABBREVIATIONS USED IN REMARKS
   TC - TEMPERATURE IN CELSIUS
  WCI - WIND CHILL INDEX
   HX - HEAT INDEX
  VSB - VISIBILITY
$$



USA.gov is the U.S. government's official web portal to all federal, state and local government web resources and services.